Location: Miles
(41.4492°N, 81.6087°W)
Time: 23:30:53
(UTC+00:00)

Vanguard 3 - Pass Details

Date: 19 September 2024
Orbit: 507 x 3223 km, 33.3° (Epoch: 14 October)

Event Time Altitude Azimuth Distance (km) Brightness Sun altitude
Exits shadow 09:07:08 - 199° (SSW) 5,189 10.9 -23.4°
Reaches altitude 10° 09:07:46 10° 197° (SSW) 5,092 10.8 -23.3°
Maximum altitude 09:21:10 33° 141° (SE) 4,274 10.9 -21.0°
Drops below altitude 10° 09:37:09 10° 87° (E) 6,123 12.8 -18.1°
Sets 09:42:27 0° 79° (E) 7,025 13.7 -17.2°
